Torna al catalogo

ARIANE 5 R/B

AttivoHEO
NORAD 29498·ROCKET BODY·🇫🇷 France

Lanciato Oct 13, 2006 da Guiana Space Centre

Loading…

Prossimi Passaggi (prossime 24 ore)

TLE

AggiornatoSource: Space-Track

Epoca: Sep 14, 2026, 05:48 UTC

1 29498U 06043E   26257.24218988  .00012306  00000-0  92197-3 0  9992
2 29498   6.9171 176.5253 6203847  36.6464 352.8354  3.78288282219848

Traccia ARIANE 5 R/B in tempo reale con AllMySat

Download on the App Store